Location: Elm Mott Branch
(32.1549°N, 97.5139°W)
Time: 09:50:48
(UTC+00:00)

CZ-3 R/B - Pass Details

Date: 18 November 2025
Orbit: 547 x 10009 km, 28.3° (Epoch: 07 December)

Event Time Altitude Azimuth Distance (km) Brightness Sun altitude
Exits shadow 12:07:23 - 266° (W) 6,441 5.1 -11.8°
Reaches altitude 10° 12:07:58 10° 266° (W) 6,243 5.0 -11.6°
Maximum altitude 12:22:16 67° 188° (S) 1,336 2.3 -8.7°
Drops below altitude 10° 12:27:14 10° 105° (ESE) 2,320 5.3 -7.7°
Sets 12:28:55 0° 102° (ESE) 3,007 6.5 -7.4°
